Location: Campbell Lake
(32.1204°N, 97.6289°W)
Time: 01:16:35
(UTC+00:00)

ARIANE 6 FM1 Upper Stage - Pass Details

Date: 16 December 2025
Orbit: 522 x 610 km, 62.0° (Epoch: 16 January)

Event Time Altitude Azimuth Distance (km) Brightness Sun altitude
Rises 12:54:25 0° 249° (WSW) 2,701 5.7 -6.6°
Reaches altitude 10° 12:57:21 10° 271° (W) 1,795 4.7 -6.1°
Maximum altitude 12:59:54 16° 311° (NW) 1,435 4.2 -5.6°
Drops below altitude 10° 13:02:26 10° 351° (N) 1,776 4.9 -5.1°
Sets 13:05:19 0° 13° (NNE) 2,659 6.0 -4.5°
